Location: Dumpton Point
(51.3500°N, 1.4433°E)
Time: 05:28:17
(UTC+00:00)

Altair - Pass Details

Date: 06 October 2022
Orbit: 1501 x 1682 km, 47.2° (Epoch: 26 November)

Event Time Altitude Azimuth Distance (km) Brightness Sun altitude
Rises 07:22:49 0° 269° (W) 4,825 9.5 11.2°
Reaches altitude 10° 07:25:55 10° 267° (W) 3,861 9.1 11.6°
Maximum altitude 07:35:44 70° 187° (S) 1,754 8.2 13.0°
Drops below altitude 10° 07:45:48 10° 107° (ESE) 3,944 11.9 14.4°
Sets 07:48:59 0° 105° (ESE) 4,933 11.8 14.8°
